| time (UTC) | temp C | wind direction | speed KPH | gust KPH | rain 1hr cm | rain 24hr cm | rain mn cm | humidity % | barometer mb |
| 20260504043805 | 17 | 165 | 6.4 | 8.0 | 0.00 | 0.00 | 0.00 | 50 | 1007.7 |
| 20260504043226 | 17 | 163 | 6.4 | 8.0 | 0.00 | 0.00 | 0.00 | 49 | 1007.8 |
| 20260504043106 | 16 | 178 | 4.8 | 8.0 | 0.00 | 0.00 | 0.00 | 49 | 1007.0 |
| 20260504042739 | 17 | 175 | 4.8 | 8.0 | 0.00 | 0.00 | 0.00 | 48 | 1007.9 |
| 20260504042221 | 17 | 173 | 8.0 | 9.7 | 0.00 | 0.00 | 0.00 | 46 | 1007.8 |
| 20260504041734 | 17 | 178 | 4.8 | 8.0 | 0.00 | 0.00 | 0.00 | 44 | 1007.9 |
| 20260504041554 | 17 | 184 | 4.8 | 9.7 | 0.00 | 0.00 | 0.00 | 44 | 1007.0 |
| 20260504041243 | 17 | 173 | 4.8 | 9.7 | 0.00 | 0.00 | 0.00 | 43 | 1008.0 |
| 20260504040724 | 17 | 188 | 6.4 | 9.7 | 0.00 | 0.00 | 0.00 | 42 | 1007.9 |
| 20260504040256 | 18 | 179 | 4.8 | 8.0 | 0.00 | 0.00 | 0.00 | 40 | 1008.0 |
| 20260504040040 | 17 | 178 | 4.8 | 6.4 | 0.00 | 0.00 | 0.00 | 40 | 1007.1 |
| 20260504035745 | 18 | 178 | 3.2 | 6.4 | 0.00 | 0.00 | 0.00 | 39 | 1008.1 |
| 20260504035228 | 18 | 178 | 3.2 | 4.8 | 0.00 | 0.00 | 0.00 | 39 | 1008.2 |
| 20260504034759 | 18 | 178 | 3.2 | 4.8 | 0.00 | 0.00 | 0.00 | 40 | 1008.1 |
| 20260504034522 | 18 | 178 | 1.6 | 4.8 | 0.00 | 0.00 | 0.00 | 40 | 1007.1 |
| 20260504034250 | 18 | 178 | 3.2 | 4.8 | 0.00 | 0.00 | 0.00 | 40 | 1008.2 |
| 20260504033727 | 18 | 178 | 4.8 | 6.4 | 0.00 | 0.00 | 0.00 | 40 | 1008.3 |
| 20260504033241 | 18 | 178 | 4.8 | 6.4 | 0.00 | 0.00 | 0.00 | 40 | 1008.3 |
| 20260504033037 | 18 | 178 | 4.8 | 6.4 | 0.00 | 0.00 | 0.00 | 40 | 1007.3 |
| 20260504032810 | 18 | 178 | 4.8 | 6.4 | 0.00 | 0.00 | 0.00 | 40 | 1008.3 |
| 20260504032232 | 18 | 182 | 4.8 | 6.4 | 0.00 | 0.00 | 0.00 | 39 | 1008.3 |
| 20260504031741 | 18 | 194 | 4.8 | 4.8 | 0.00 | 0.00 | 0.00 | 38 | 1008.4 |
| 20260504031512 | 18 | 194 | 1.6 | 4.8 | 0.00 | 0.00 | 0.00 | 38 | 1007.4 |
| 20260504031225 | 18 | 194 | 3.2 | 4.8 | 0.00 | 0.00 | 0.00 | 38 | 1008.3 |
| 20260504030736 | 18 | 194 | 3.2 | 3.2 | 0.00 | 0.00 | 0.00 | 38 | 1008.4 |
| 20260504030243 | 18 | 194 | 3.2 | 4.8 | 0.00 | 0.00 | 0.00 | 40 | 1008.4 |
| 20260504030018 | 18 | 194 | 1.6 | 4.8 | 0.00 | 0.00 | 0.00 | 40 | 1007.5 |
| 20260504025727 | 18 | 194 | 3.2 | 4.8 | 0.00 | 0.00 | 0.00 | 40 | 1008.5 |
| 20260504025239 | 18 | 194 | 3.2 | 4.8 | 0.00 | 0.00 | 0.00 | 41 | 1008.4 |
| 20260504024723 | 18 | 194 | 3.2 | 4.8 | 0.00 | 0.00 | 0.00 | 41 | 1008.5 |
| 20260504024525 | 18 | 194 | 3.2 | 4.8 | 0.00 | 0.00 | 0.00 | 41 | 1007.6 |
| 20260504024236 | 18 | 194 | 3.2 | 4.8 | 0.00 | 0.00 | 0.00 | 41 | 1008.5 |
| 20260504023745 | 18 | 194 | 3.2 | 4.8 | 0.00 | 0.00 | 0.00 | 41 | 1008.6 |
| 20260504023237 | 18 | 194 | 3.2 | 4.8 | 0.00 | 0.00 | 0.00 | 40 | 1008.6 |
| 20260504023008 | 18 | 194 | 3.2 | 4.8 | 0.00 | 0.00 | 0.00 | 40 | 1007.7 |
| 20260504022749 | 18 | 194 | 3.2 | 4.8 | 0.00 | 0.00 | 0.00 | 40 | 1008.6 |
| 20260504022228 | 18 | 194 | 3.2 | 6.4 | 0.00 | 0.00 | 0.00 | 40 | 1008.7 |
| 20260504021759 | 18 | 194 | 3.2 | 6.4 | 0.00 | 0.00 | 0.00 | 40 | 1008.7 |
| 20260504021554 | 18 | 194 | 3.2 | 6.4 | 0.00 | 0.00 | 0.00 | 40 | 1007.8 |
| 20260504021251 | 19 | 194 | 4.8 | 6.4 | 0.00 | 0.00 | 0.00 | 40 | 1008.7 |
| 20260504020730 | 19 | 194 | 3.2 | 6.4 | 0.00 | 0.00 | 0.00 | 40 | 1008.8 |
| 20260504020243 | 19 | 194 | 4.8 | 8.0 | 0.00 | 0.00 | 0.00 | 40 | 1008.8 |
| 20260504020049 | 18 | 194 | 3.2 | 8.0 | 0.00 | 0.00 | 0.00 | 40 | 1007.9 |
| 20260504015726 | 19 | 194 | 4.8 | 8.0 | 0.00 | 0.00 | 0.00 | 40 | 1008.9 |
| 20260504015238 | 19 | 194 | 3.2 | 4.8 | 0.00 | 0.00 | 0.00 | 39 | 1008.9 |
| 20260504014722 | 20 | 194 | 3.2 | 6.4 | 0.00 | 0.00 | 0.00 | 39 | 1008.8 |
| 20260504014603 | 19 | 194 | 3.2 | 6.4 | 0.00 | 0.00 | 0.00 | 38 | 1007.9 |
| 20260504014502 | 19 | 194 | 3.2 | 8.0 | 0.00 | 0.00 | 0.00 | 38 | 1007.9 |
| 20260504014232 | 20 | 202 | 4.8 | 8.0 | 0.00 | 0.00 | 0.00 | 38 | 1008.8 |
| 20260504013741 | 20 | 194 | 4.8 | 8.0 | 0.00 | 0.00 | 0.00 | 37 | 1008.8 |
| 20260504013224 | 20 | 202 | 4.8 | 6.4 | 0.00 | 0.00 | 0.00 | 36 | 1008.8 |
| 20260504013015 | 20 | 172 | 4.8 | 8.0 | 0.00 | 0.00 | 0.00 | 36 | 1007.9 |
| 20260504012734 | 20 | 172 | 4.8 | 6.4 | 0.00 | 0.00 | 0.00 | 36 | 1008.8 |
| 20260504012247 | 21 | 172 | 3.2 | 8.0 | 0.00 | 0.00 | 0.00 | 36 | 1008.8 |
| 20260504011731 | 21 | 172 | 4.8 | 6.4 | 0.00 | 0.00 | 0.00 | 36 | 1008.8 |
| 20260504011512 | 21 | 172 | 3.2 | 8.0 | 0.00 | 0.00 | 0.00 | 36 | 1008.0 |
| 20260504011245 | 21 | 172 | 4.8 | 8.0 | 0.00 | 0.00 | 0.00 | 35 | 1008.9 |
| 20260504010727 | 21 | 198 | 4.8 | 8.0 | 0.00 | 0.00 | 0.00 | 35 | 1008.9 |
| 20260504010235 | 21 | 196 | 4.8 | 9.7 | 0.00 | 0.00 | 0.00 | 35 | 1009.0 |
| 20260504010013 | 21 | 201 | 4.8 | 9.7 | 0.00 | 0.00 | 0.00 | 34 | 1008.1 |
| 20260504005748 | 21 | 198 | 4.8 | 11.3 | 0.00 | 0.00 | 0.00 | 35 | 1009.0 |
| 20260504005231 | 21 | 203 | 6.4 | 11.3 | 0.00 | 0.00 | 0.00 | 35 | 1009.1 |
| 20260504004744 | 22 | 213 | 8.0 | 14.5 | 0.00 | 0.00 | 0.00 | 34 | 1009.1 |
| 20260504004517 | 21 | 225 | 6.4 | 14.5 | 0.00 | 0.00 | 0.00 | 34 | 1008.3 |
| 20260504004227 | 22 | 219 | 8.0 | 14.5 | 0.00 | 0.00 | 0.00 | 35 | 1009.2 |
| 20260504003738 | 22 | 202 | 8.0 | 12.9 | 0.00 | 0.00 | 0.00 | 34 | 1009.3 |
| 20260504003222 | 22 | 201 | 8.0 | 12.9 | 0.00 | 0.00 | 0.00 | 34 | 1009.2 |
| 20260504003021 | 22 | 211 | 8.0 | 12.9 | 0.00 | 0.00 | 0.00 | 34 | 1008.3 |
| 20260504002732 | 22 | 206 | 8.0 | 16.1 | 0.00 | 0.00 | 0.00 | 33 | 1009.3 |
| 20260504002240 | 22 | 225 | 8.0 | 19.3 | 0.00 | 0.00 | 0.00 | 33 | 1009.3 |
| 20260504001723 | 22 | 211 | 11.3 | 19.3 | 0.00 | 0.00 | 0.00 | 33 | 1009.3 |
| 20260504001526 | 22 | 214 | 11.3 | 19.3 | 0.00 | 0.00 | 0.00 | 32 | 1008.5 |
| 20260504001237 | 23 | 207 | 12.9 | 19.3 | 0.00 | 0.00 | 0.00 | 33 | 1009.4 |
| 20260504000748 | 23 | 180 | 11.3 | 16.1 | 0.00 | 0.00 | 0.00 | 32 | 1009.5 |
| 20260504000230 | 23 | 180 | 11.3 | 16.1 | 0.00 | 0.00 | 0.00 | 32 | 1009.5 |
| 20260504000040 | 22 | 189 | 9.7 | 16.1 | 0.00 | 0.00 | 0.00 | 32 | 1008.6 |
| 20260503235743 | 23 | 182 | 11.3 | 16.1 | 0.00 | 0.00 | 0.00 | 31 | 1009.5 |
| 20260503235227 | 23 | 212 | 9.7 | 16.1 | 0.00 | 0.00 | 0.00 | 31 | 1009.5 |
| 20260503234757 | 23 | 184 | 9.7 | 17.7 | 0.00 | 0.00 | 0.00 | 32 | 1009.4 |
| 20260503234511 | 23 | 201 | 11.3 | 17.7 | 0.00 | 0.00 | 0.00 | 32 | 1008.5 |
| 20260503234247 | 23 | 172 | 11.3 | 17.7 | 0.00 | 0.00 | 0.00 | 32 | 1009.5 |
| 20260503233729 | 23 | 178 | 12.9 | 17.7 | 0.00 | 0.00 | 0.00 | 32 | 1009.6 |
| 20260503233241 | 23 | 192 | 14.5 | 17.7 | 0.00 | 0.00 | 0.00 | 32 | 1009.5 |
| 20260503233016 | 23 | 211 | 12.9 | 17.7 | 0.00 | 0.00 | 0.00 | 33 | 1008.7 |
| 20260503232725 | 23 | 208 | 11.3 | 17.7 | 0.00 | 0.00 | 0.00 | 32 | 1009.6 |
| 20260503232238 | 23 | 207 | 9.7 | 14.5 | 0.00 | 0.00 | 0.00 | 32 | 1009.7 |
| 20260503231722 | 23 | 201 | 6.4 | 12.9 | 0.00 | 0.00 | 0.00 | 33 | 1009.7 |
| 20260503231523 | 23 | 219 | 6.4 | 14.5 | 0.00 | 0.00 | 0.00 | 33 | 1008.7 |
| 20260503231235 | 23 | 209 | 9.7 | 16.1 | 0.00 | 0.00 | 0.00 | 32 | 1009.6 |
| 20260503230740 | 23 | 215 | 11.3 | 24.1 | 0.00 | 0.00 | 0.00 | 31 | 1009.7 |
| 20260503230224 | 23 | 211 | 14.5 | 24.1 | 0.00 | 0.00 | 0.00 | 33 | 1009.6 |
| 20260503230023 | 23 | 194 | 11.3 | 19.3 | 0.00 | 0.00 | 0.00 | 32 | 1008.7 |
| 20260503225755 | 23 | 203 | 8.0 | 14.5 | 0.00 | 0.00 | 0.00 | 32 | 1009.6 |
| 20260503225247 | 23 | 234 | 8.0 | 14.5 | 0.00 | 0.00 | 0.00 | 33 | 1009.7 |
| 20260503224731 | 23 | 252 | 11.3 | 16.1 | 0.00 | 0.00 | 0.00 | 33 | 1009.7 |
| 20260503224513 | 23 | 229 | 4.8 | 11.3 | 0.00 | 0.00 | 0.00 | 32 | 1008.7 |
| 20260503224244 | 23 | 226 | 1.6 | 9.7 | 0.00 | 0.00 | 0.00 | 32 | 1009.6 |
| 20260503223734 | 24 | 226 | 6.4 | 22.5 | 0.00 | 0.00 | 0.00 | 30 | 1009.7 |
| 20260503223243 | 24 | 223 | 11.3 | 22.5 | 0.00 | 0.00 | 0.00 | 31 | 1009.8 |
| 20260503223053 | 24 | 242 | 12.9 | 22.5 | 0.00 | 0.00 | 0.00 | 31 | 1008.9 |
| 20260503222725 | 25 | 282 | 4.8 | 14.5 | 0.00 | 0.00 | 0.00 | 31 | 1009.8 |
| 20260503222237 | 25 | 296 | 4.8 | 14.5 | 0.00 | 0.00 | 0.00 | 33 | 1009.8 |
| 20260503221722 | 24 | 66 | 1.6 | 12.9 | 0.00 | 0.00 | 0.00 | 31 | 1009.8 |
| 20260503221507 | 24 | 10 | 1.6 | 14.5 | 0.00 | 0.00 | 0.00 | 32 | 1008.9 |
| 20260503221257 | 24 | 57 | 3.2 | 17.7 | 0.00 | 0.00 | 0.00 | 33 | 1009.8 |
| 20260503220746 | 24 | 45 | 6.4 | 17.7 | 0.00 | 0.00 | 0.00 | 33 | 1009.8 |
| 20260503220230 | 25 | 284 | 4.8 | 16.1 | 0.00 | 0.00 | 0.00 | 29 | 1009.9 |
| 20260503220100 | 24 | 346 | 6.4 | 16.1 | 0.00 | 0.00 | 0.00 | 33 | 1009.0 |
| 20260503215743 | 24 | 240 | 11.3 | 20.9 | 0.00 | 0.00 | 0.00 | 31 | 1009.8 |
| 20260503215221 | 25 | 288 | 12.9 | 25.7 | 0.00 | 0.00 | 0.00 | 32 | 1010.0 |
| 20260503214734 | 25 | 271 | 14.5 | 25.7 | 0.00 | 0.00 | 0.00 | 31 | 1010.2 |
| 20260503214558 | 24 | 257 | 11.3 | 25.7 | 0.00 | 0.00 | 0.00 | 33 | 1009.3 |
| 20260503214247 | 24 | 288 | 14.5 | 25.7 | 0.00 | 0.00 | 0.00 | 34 | 1010.1 |
| 20260503213729 | 24 | 281 | 1.6 | 9.7 | 0.00 | 0.00 | 0.00 | 31 | 1010.3 |
| 20260503213243 | 23 | 311 | 4.8 | 9.7 | 0.00 | 0.00 | 0.00 | 36 | 1010.3 |
| 20260503213053 | 23 | 321 | 4.8 | 12.9 | 0.00 | 0.00 | 0.00 | 32 | 1009.5 |
| 20260503212726 | 23 | 229 | 4.8 | 12.9 | 0.00 | 0.00 | 0.00 | 31 | 1010.3 |
| 20260503212237 | 24 | 261 | 6.4 | 17.7 | 0.00 | 0.00 | 0.00 | 32 | 1010.5 |
| 20260503211723 | 25 | 341 | 11.3 | 20.9 | 0.00 | 0.00 | 0.00 | 32 | 1010.6 |
| 20260503211554 | 24 | 340 | 8.0 | 20.9 | 0.00 | 0.00 | 0.00 | 34 | 1009.8 |
| 20260503211252 | 25 | 298 | 14.5 | 20.9 | 0.00 | 0.00 | 0.00 | 33 | 1010.7 |
| 20260503210733 | 25 | 279 | 4.8 | 20.9 | 0.00 | 0.00 | 0.00 | 33 | 1010.8 |
| 20260503210244 | 24 | 322 | 6.4 | 19.3 | 0.00 | 0.00 | 0.00 | 33 | 1010.7 |
| 20260503210057 | 24 | 311 | 4.8 | 19.3 | 0.00 | 0.00 | 0.00 | 35 | 1009.9 |
| 20260503205726 | 24 | 355 | 12.9 | 20.9 | 0.00 | 0.00 | 0.00 | 34 | 1010.9 |
| 20260503205238 | 24 | 348 | 8.0 | 20.9 | 0.00 | 0.00 | 0.00 | 32 | 1010.9 |
| 20260503204721 | 24 | 24 | 4.8 | 17.7 | 0.00 | 0.00 | 0.00 | 34 | 1010.9 |
| 20260503204608 | 23 | 5 | 8.0 | 17.7 | 0.00 | 0.00 | 0.00 | 33 | 1010.1 |
| 20260503204256 | 23 | 303 | 11.3 | 17.7 | 0.00 | 0.00 | 0.00 | 32 | 1011.0 |
| 20260503203742 | 23 | 279 | 8.0 | 17.7 | 0.00 | 0.00 | 0.00 | 37 | 1011.2 |
| 20260503203223 | 24 | 317 | 8.0 | 17.7 | 0.00 | 0.00 | 0.00 | 32 | 1011.0 |
| 20260503203040 | 23 | 360 | 3.2 | 17.7 | 0.00 | 0.00 | 0.00 | 33 | 1010.4 |
| 20260503202735 | 23 | 44 | 3.2 | 20.9 | 0.00 | 0.00 | 0.00 | 31 | 1011.2 |
| 20260503202248 | 24 | 277 | 12.9 | 20.9 | 0.00 | 0.00 | 0.00 | 33 | 1011.4 |
| 20260503201731 | 24 | 334 | 14.5 | 24.1 | 0.00 | 0.00 | 0.00 | 31 | 1011.4 |
| 20260503201544 | 24 | 355 | 11.3 | 24.1 | 0.00 | 0.00 | 0.00 | 35 | 1010.6 |
| 20260503201244 | 24 | 360 | 14.5 | 24.1 | 0.00 | 0.00 | 0.00 | 31 | 1011.3 |
| 20260503200723 | 24 | 337 | 12.9 | 22.5 | 0.00 | 0.00 | 0.00 | 31 | 1011.6 |
| 20260503200234 | 23 | 346 | 11.3 | 22.5 | 0.00 | 0.00 | 0.00 | 34 | 1011.5 |
| 20260503200046 | 23 | 346 | 16.1 | 22.5 | 0.00 | 0.00 | 0.00 | 32 | 1010.8 |
| 20260503195742 | 23 | 317 | 11.3 | 20.9 | 0.00 | 0.00 | 0.00 | 34 | 1011.5 |
| 20260503195224 | 23 | 323 | 14.5 | 32.2 | 0.00 | 0.00 | 0.00 | 32 | 1011.6 |
| 20260503194737 | 24 | 355 | 19.3 | 32.2 | 0.00 | 0.00 | 0.00 | 30 | 1011.6 |
| 20260503194608 | 23 | 42 | 12.9 | 32.2 | 0.00 | 0.00 | 0.00 | 33 | 1010.7 |
| 20260503194251 | 24 | 337 | 24.1 | 32.2 | 0.00 | 0.00 | 0.00 | 32 | 1011.6 |
| 20260503193735 | 24 | 360 | 4.8 | 29.0 | 0.00 | 0.00 | 0.00 | 31 | 1011.6 |
| 20260503193248 | 25 | 319 | 12.9 | 29.0 | 0.00 | 0.00 | 0.00 | 32 | 1011.7 |
| 20260503193053 | 24 | 302 | 17.7 | 29.0 | 0.00 | 0.00 | 0.00 | 34 | 1010.9 |
| 20260503192732 | 25 | 336 | 19.3 | 30.6 | 0.00 | 0.00 | 0.00 | 32 | 1011.7 |
| 20260503192221 | 24 | 15 | 22.5 | 30.6 | 0.00 | 0.00 | 0.00 | 32 | 1011.7 |
| 20260503191747 | 24 | 333 | 19.3 | 30.6 | 0.00 | 0.00 | 0.00 | 32 | 1011.7 |
| 20260503191535 | 24 | 322 | 22.5 | 30.6 | 0.00 | 0.00 | 0.00 | 30 | 1010.9 |
| 20260503191232 | 25 | 323 | 17.7 | 27.4 | 0.00 | 0.00 | 0.00 | 34 | 1011.6 |
| 20260503190743 | 24 | 14 | 20.9 | 30.6 | 0.00 | 0.00 | 0.00 | 31 | 1011.7 |
| 20260503190226 | 24 | 5 | 12.9 | 30.6 | 0.00 | 0.00 | 0.00 | 32 | 1011.7 |
| 20260503190046 | 23 | 14 | 17.7 | 30.6 | 0.00 | 0.00 | 0.00 | 32 | 1011.0 |
| 20260503185739 | 24 | 340 | 19.3 | 29.0 | 0.00 | 0.00 | 0.00 | 31 | 1011.9 |
| 20260503185248 | 24 | 355 | 16.1 | 25.7 | 0.00 | 0.00 | 0.00 | 33 | 1011.7 |
| 20260503184739 | 23 | 15 | 14.5 | 29.0 | 0.00 | 0.00 | 0.00 | 32 | 1011.8 |
| 20260503184529 | 23 | 355 | 16.1 | 29.0 | 0.00 | 0.00 | 0.00 | 33 | 1011.1 |
| 20260503184223 | 23 | 5 | 19.3 | 30.6 | 0.00 | 0.00 | 0.00 | 32 | 1011.9 |
| 20260503183730 | 23 | 344 | 22.5 | 30.6 | 0.00 | 0.00 | 0.00 | 32 | 1011.9 |
| 20260503183239 | 24 | 317 | 14.5 | 27.4 | 0.00 | 0.00 | 0.00 | 33 | 1011.8 |
| 20260503183025 | 23 | 355 | 6.4 | 27.4 | 0.00 | 0.00 | 0.00 | 35 | 1011.2 |
| 20260503182724 | 23 | 355 | 12.9 | 27.4 | 0.00 | 0.00 | 0.00 | 33 | 1011.9 |
| 20260503182235 | 23 | 21 | 12.9 | 29.0 | 0.00 | 0.00 | 0.00 | 32 | 1012.2 |
| 20260503181745 | 23 | 330 | 22.5 | 30.6 | 0.00 | 0.00 | 0.00 | 32 | 1012.2 |
| 20260503181532 | 22 | 19 | 19.3 | 30.6 | 0.00 | 0.00 | 0.00 | 34 | 1011.4 |
| 20260503181229 | 23 | 11 | 22.5 | 30.6 | 0.00 | 0.00 | 0.00 | 33 | 1012.2 |
| 20260503180739 | 22 | 5 | 17.7 | 30.6 | 0.00 | 0.00 | 0.00 | 32 | 1012.3 |
| 20260503180223 | 22 | 11 | 11.3 | 33.8 | 0.00 | 0.00 | 0.00 | 33 | 1012.3 |
| 20260503180051 | 22 | 339 | 16.1 | 33.8 | 0.00 | 0.00 | 0.00 | 30 | 1011.6 |
| 20260503175733 | 23 | 360 | 27.4 | 33.8 | 0.00 | 0.00 | 0.00 | 31 | 1012.4 |
| 20260503175244 | 23 | 15 | 22.5 | 30.6 | 0.00 | 0.00 | 0.00 | 34 | 1012.3 |
| 20260503174727 | 22 | 22 | 14.5 | 35.4 | 0.00 | 0.00 | 0.00 | 32 | 1012.4 |
| 20260503174551 | 22 | 5 | 14.5 | 35.4 | 0.00 | 0.00 | 0.00 | 31 | 1011.8 |
| 20260503174240 | 22 | 333 | 20.9 | 35.4 | 0.00 | 0.00 | 0.00 | 35 | 1012.6 |
| 20260503173721 | 22 | 336 | 19.3 | 33.8 | 0.00 | 0.00 | 0.00 | 33 | 1012.5 |
| 20260503173231 | 22 | 355 | 14.5 | 27.4 | 0.00 | 0.00 | 0.00 | 32 | 1012.6 |
| 20260503173147 | 22 | 305 | 12.9 | 27.4 | 0.00 | 0.00 | 0.00 | 35 | 1011.9 |
| 20260503172743 | 22 | 360 | 19.3 | 27.4 | 0.00 | 0.00 | 0.00 | 33 | 1012.6 |
| 20260503172227 | 22 | 329 | 17.7 | 24.1 | 0.00 | 0.00 | 0.00 | 35 | 1012.6 |
| 20260503171736 | 22 | 335 | 12.9 | 20.9 | 0.00 | 0.00 | 0.00 | 37 | 1012.6 |
| 20260503171600 | 22 | 5 | 12.9 | 20.9 | 0.00 | 0.00 | 0.00 | 35 | 1011.9 |
| 20260503171502 | 22 | 355 | 9.7 | 25.7 | 0.00 | 0.00 | 0.00 | 34 | 1011.9 |
| 20260503171250 | 23 | 12 | 11.3 | 25.7 | 0.00 | 0.00 | 0.00 | 36 | 1012.7 |
| 20260503170729 | 22 | 317 | 16.1 | 25.7 | 0.00 | 0.00 | 0.00 | 37 | 1012.7 |
| 20260503170240 | 22 | 355 | 12.9 | 24.1 | 0.00 | 0.00 | 0.00 | 40 | 1012.6 |
| 20260503150747 | 18 | 303 | 11.3 | 22.5 | 0.00 | 0.00 | 0.00 | 47 | 1012.5 |
| 20260503150232 | 18 | 325 | 12.9 | 22.5 | 0.00 | 0.00 | 0.00 | 45 | 1012.5 |
| 20260503140223 | 16 | 260 | 19.3 | 29.0 | 0.00 | 0.00 | 0.00 | 47 | 1012.1 |
| 20260503131247 | 14 | 198 | 19.3 | 37.0 | 0.00 | 0.00 | 0.00 | 52 | 1011.9 |
| 20260503130747 | 14 | 259 | 24.1 | 37.0 | 0.00 | 0.00 | 0.00 | 52 | 1012.0 |
| 20260503130231 | 13 | 246 | 22.5 | 35.4 | 0.00 | 0.00 | 0.00 | 52 | 1012.0 |
| 20260503130113 | 13 | 205 | 20.9 | 35.4 | 0.00 | 0.00 | 0.00 | 52 | 1011.5 |
| 20260503110810 | 11 | 237 | 9.7 | 16.1 | 0.00 | 0.00 | 0.00 | 51 | 1011.4 |
| 20260503110227 | 12 | 272 | 9.7 | 19.3 | 0.00 | 0.00 | 0.00 | 50 | 1011.3 |
| 20260503090229 | 12 | 223 | 16.1 | 25.7 | 0.00 | 0.00 | 0.00 | 50 | 1011.3 |
| 20260503081535 | 10 | 197 | 9.7 | 16.1 | 0.00 | 0.00 | 0.00 | 53 | 1011.7 |
| 20260503081230 | 10 | 188 | 11.3 | 17.7 | 0.00 | 0.00 | 0.00 | 53 | 1011.9 |
| 20260503080741 | 10 | 205 | 12.9 | 17.7 | 0.00 | 0.00 | 0.00 | 53 | 1011.9 |
| 20260503080224 | 11 | 173 | 11.3 | 17.7 | 0.00 | 0.00 | 0.00 | 52 | 1011.9 |
| 20260503072805 | 11 | 186 | 11.3 | 19.3 | 0.00 | 0.00 | 0.00 | 51 | 1012.1 |
| 20260503072227 | 11 | 203 | 12.9 | 19.3 | 0.00 | 0.00 | 0.00 | 51 | 1012.1 |
| 20260503071739 | 11 | 178 | 12.9 | 16.1 | 0.00 | 0.00 | 0.00 | 51 | 1012.2 |
| 20260503071519 | 11 | 197 | 11.3 | 19.3 | 0.00 | 0.00 | 0.00 | 51 | 1012.1 |
| 20260503071225 | 11 | 183 | 12.9 | 20.9 | 0.00 | 0.00 | 0.00 | 50 | 1012.2 |
| 20260503070735 | 11 | 189 | 11.3 | 20.9 | 0.00 | 0.00 | 0.00 | 50 | 1012.3 |
| 20260503070243 | 11 | 151 | 11.3 | 19.3 | 0.00 | 0.00 | 0.00 | 50 | 1012.4 |
| 20260503060232 | 11 | 179 | 11.3 | 17.7 | 0.00 | 0.00 | 0.00 | 48 | 1013.1 |
| 20260503054736 | 11 | 164 | 9.7 | 17.7 | 0.00 | 0.00 | 0.00 | 48 | 1013.3 |
| 20260503054558 | 11 | 192 | 9.7 | 17.7 | 0.00 | 0.00 | 0.00 | 48 | 1013.2 |
| 20260503054250 | 11 | 211 | 9.7 | 19.3 | 0.00 | 0.00 | 0.00 | 48 | 1013.2 |
| 20260503053732 | 11 | 194 | 9.7 | 20.9 | 0.00 | 0.00 | 0.00 | 48 | 1013.3 |
| 20260503053243 | 11 | 164 | 14.5 | 20.9 | 0.00 | 0.00 | 0.00 | 48 | 1013.2 |
| 20260503053053 | 11 | 218 | 12.9 | 20.9 | 0.00 | 0.00 | 0.00 | 48 | 1013.2 |
| 20260503052728 | 11 | 164 | 12.9 | 20.9 | 0.00 | 0.00 | 0.00 | 48 | 1013.1 |
| 20260503052300 | 11 | 185 | 12.9 | 20.9 | 0.00 | 0.00 | 0.00 | 48 | 1013.2 |
| 20260503051722 | 12 | 204 | 14.5 | 20.9 | 0.00 | 0.00 | 0.00 | 48 | 1013.3 |
| 20260503051534 | 11 | 175 | 11.3 | 24.1 | 0.00 | 0.00 | 0.00 | 48 | 1013.3 |
| 20260503051235 | 12 | 197 | 12.9 | 24.1 | 0.00 | 0.00 | 0.00 | 48 | 1013.4 |
| 20260503050740 | 12 | 196 | 12.9 | 22.5 | 0.00 | 0.00 | 0.00 | 47 | 1013.4 |
| 20260503050223 | 12 | 165 | 14.5 | 20.9 | 0.00 | 0.00 | 0.00 | 47 | 1013.4 |
| 20260503050032 | 12 | 195 | 12.9 | 20.9 | 0.00 | 0.00 | 0.00 | 47 | 1013.4 |
| 20260503045726 | 12 | 205 | 12.9 | 19.3 | 0.00 | 0.00 | 0.00 | 47 | 1013.5 |
| 20260503045238 | 12 | 192 | 12.9 | 20.9 | 0.00 | 0.00 | 0.00 | 47 | 1013.5 |
| 20260503044723 | 12 | 175 | 12.9 | 22.5 | 0.00 | 0.00 | 0.00 | 46 | 1013.5 |
| 20260503044539 | 12 | 184 | 12.9 | 22.5 | 0.00 | 0.00 | 0.00 | 46 | 1013.5 |
| 20260503044235 | 12 | 200 | 14.5 | 22.5 | 0.00 | 0.00 | 0.00 | 46 | 1013.5 |